Flag for Japan Weather past 2 weeks in Hiroshima, Japan

Now
62 °F

Mostly cloudy.


Feels Like: 62 °F
Forecast: 49 / 75 °F
Wind: 5 mph from Northeast

Location: Iwakuni Marine Corps Air Station


UV Index: 0 (Low)

Visibility: N/A


Pressure: 29.92 "Hg

Humidity: 65%

Dew point: 50 °F

Location of HiroshimaLocation

Historic Weather in Hiroshima

°F

Hiroshima temperature yesterday

Maximum temperature yesterday: 63 °F (at 1:55 PM)
Minimum temperature yesterday: 44 °F (at 5:55 AM)
Average temperature yesterday: 55 °F

Past Weeks' High & Low Weather Summary

 TemperatureHumidityPressure
High68 °F (Apr 16, 11:55 AM)97% (Apr 14, 5:55 AM)30.18 "Hg (Apr 14, 5:55 AM)
Low37 °F (Apr 7, 5:55 AM)19% (Apr 11, 10:55 AM)29.54 "Hg (Apr 4, 4:55 AM)
Average54 °F67%29.99 "Hg
* Reported Apr 1 6:55 PM — Apr 16 6:55 PM, Hiroshima, Weather by CustomWeather, © 2014

Note: Actual official high and low records may vary slightly from our data, if they occured in-between our weather recording intervals... More about our weather records

Advertising

Historic Weather Conditions — Data for Previous 24 hours

 ConditionsComfort  
Time TempWeatherWind HumidityBarometerVisibility
6:55 PM
Apr 16
62 °FMostly cloudy.5 mph65%29.92 "HgN/A
5:55 PM61 °FMore clouds than sun.3 mph70%29.91 "HgN/A
4:55 PM62 °FMore clouds than sun.3 mph70%29.91 "HgN/A
3:55 PM62 °FBroken clouds.6 mph70%29.91 "HgN/A
2:55 PM63 °FMore clouds than sun.5 mph65%29.93 "HgN/A
1:55 PM62 °FMore clouds than sun.3 mph67%29.96 "HgN/A
12:55 PM64 °FMore clouds than sun.5 mph58%29.97 "HgN/A
11:55 AM68 °FMore clouds than sun.No wind53%30.00 "HgN/A
10:55 AM66 °FMore clouds than sun.3 mph56%30.01 "HgN/A
9:55 AM62 °FMore clouds than sun.3 mph65%30.03 "HgN/A
7:55 AM55 °FOvercast.No wind72%30.03 "HgN/A
6:55 AM54 °FPartly sunny.5 mph72%30.02 "HgN/A
5:55 AM52 °FPartly sunny.5 mph77%30.01 "HgN/A
4:55 AM52 °FPassing clouds.3 mph77%29.99 "HgN/A
3:55 AM52 °FPassing clouds.No wind80%29.99 "HgN/A
2:55 AM54 °FPassing clouds.No wind72%30.01 "HgN/A
1:55 AM54 °FPassing clouds.3 mph74%30.02 "HgN/A
12:55 AM55 °FPassing clouds.No wind74%30.03 "HgN/A
11:55 PM
Apr 15
57 °FPassing clouds.6 mph74%30.02 "HgN/A
10:55 PM57 °FPassing clouds.No wind69%30.03 "HgN/A
9:55 PM57 °FPassing clouds.No wind72%30.03 "HgN/A
8:55 PM59 °FPassing clouds.6 mph67%30.00 "HgN/A
7:55 PM58 °FPassing clouds.7 mph72%30.00 "HgN/A
Weather by CustomWeather, © 2014

See weather overview